Flag for U.S.A. Weather past 2 weeks in Ontario, California, U.S.A.

Now
58 °F

Clear.


Feels Like: 57 °F
Forecast: 57 / 84 °F
Wind: 7 mph from West

Location: Ontario International Airport

Current Time: May 28, 2015 at 1:35:07 AM

Latest Report: May 28, 2015 at 12:53 AM


Visibility: 10 mi

Pressure: 29.95 "Hg

Humidity: 81%

Dew point: 52 °F

Location of OntarioLocation

Historic Weather in Ontario — Graph

°F

Ontario temperature yesterday

Maximum temperature yesterday: 79 °F (at 3:53 PM)
Minimum temperature yesterday: 59 °F (at 12:53 AM)
Average temperature yesterday: 65 °F

Past Weeks' High & Low Weather Summary

 TemperatureHumidityPressure
High79 °F (May 27, 3:53 PM)93% (May 23, 4:53 AM)30.09 "Hg (May 23, 4:53 AM)
Low52 °F (May 14, 3:53 PM)36% (May 20, 2:53 PM)29.80 "Hg (May 15, 4:53 PM)
Average61 °F68%29.95 "Hg
* Reported May 12 11:53 PM — May 27 11:53 PM, Ontario, Weather by CustomWeather, © 2015

Note: Actual official high and low records may vary slightly from our data, if they occured in-between our weather recording intervals... More about our weather records

Advertising

Ontario weather history for previous 24 hours

 ConditionsComfort  
Time TempWeatherWind HumidityBarometerVisibility
11:53 PM
Wed, May 27
60 °FClear.7 mph78%29.97 "Hg10 mi
10:53 PM60 °FClear.3 mph78%29.97 "Hg10 mi
9:53 PM62 °FClear.5 mph73%29.96 "Hg10 mi
8:53 PM63 °FClear.9 mph70%29.94 "Hg10 mi
7:53 PM66 °FSunny.10 mph63%29.93 "Hg10 mi
6:53 PM70 °FSunny.14 mph55%29.91 "Hg10 mi
5:53 PM75 °FSunny.13 mph47%29.89 "Hg10 mi
4:53 PM78 °FSunny.12 mph40%29.89 "Hg10 mi
3:53 PM79 °FSunny.12 mph39%29.90 "Hg8 mi
2:53 PM78 °FSunny.10 mph40%29.91 "Hg9 mi
1:53 PM75 °FSunny.8 mph45%29.93 "Hg8 mi
12:53 PM70 °FHaze.6 mph51%29.96 "Hg6 mi
11:53 AM67 °FHaze.7 mph59%29.97 "Hg6 mi
10:53 AM62 °FOvercast.3 mph70%29.98 "Hg5 mi
9:53 AM62 °FOvercast.7 mph70%29.98 "Hg5 mi
8:53 AM61 °FOvercast.3 mph72%29.97 "Hg4 mi
7:53 AM60 °FOvercast.No wind78%29.97 "Hg4 mi
6:53 AM59 °FOvercast.No wind81%29.96 "Hg4 mi
5:53 AM59 °FOvercast.No wind81%29.94 "Hg5 mi
4:53 AM59 °FOvercast.6 mph81%29.94 "Hg5 mi
3:53 AM59 °FOvercast.7 mph81%29.95 "Hg6 mi
2:53 AM59 °FOvercast.3 mph81%29.94 "Hg5 mi
1:53 AM59 °FOvercast.5 mph81%29.96 "Hg5 mi
Weather by CustomWeather, © 2015

See weather overviewHow to use our weather pages